Time,TemperatureF,DewpointF,PressureIn,WindDirection,WindDirectionDegrees,WindSpeedMPH,WindSpeedGustMPH,Humidity,HourlyPrecipIn,Conditions,Clouds,dailyrainin,SoftwareType,DateUTC
2013-02-01 00:03:00,48.0,38.0,30.23,North,11,0.0,0.0,67,0.00,,,0.12,,2013-02-01 05:03:00,
2013-02-01 00:12:00,48.0,38.0,30.23,North,11,0.0,0.0,67,0.00,,,0.12,,2013-02-01 05:12:00,
2013-02-01 00:22:00,47.0,37.0,30.24,NNE,12,0.0,0.0,69,0.00,,,0.12,,2013-02-01 05:22:00,
2013-02-01 00:32:00,47.0,38.0,30.24,NNE,12,0.0,0.0,70,0.00,,,0.12,,2013-02-01 05:32:00,
2013-02-01 00:42:00,47.0,38.0,30.24,NNE,12,0.0,0.0,70,0.00,,,0.12,,2013-02-01 05:42:00,
2013-02-01 00:52:00,46.0,37.0,30.24,North,11,0.0,0.0,72,0.00,,,0.12,,2013-02-01 05:52:00,
2013-02-01 01:02:00,46.0,38.0,30.24,North,11,0.0,0.0,73,0.00,,,0.12,,2013-02-01 06:02:00,
2013-02-01 01:11:00,46.0,38.0,30.24,North,11,0.0,0.0,73,0.00,,,0.12,,2013-02-01 06:11:00,
2013-02-01 01:22:00,46.0,38.0,30.23,NNE,12,0.0,0.0,73,0.00,,,0.12,,2013-02-01 06:22:00,
2013-02-01 01:32:00,45.0,37.0,30.24,NNE,12,0.0,0.0,74,0.00,,,0.12,,2013-02-01 06:32:00,
2013-02-01 01:42:00,45.0,37.0,30.24,NNE,12,0.0,0.0,74,0.00,,,0.12,,2013-02-01 06:42:00,
2013-02-01 01:52:00,44.0,37.0,30.24,NNE,12,0.0,0.0,76,0.00,,,0.12,,2013-02-01 06:52:00,
2013-02-01 02:02:00,43.0,37.0,30.24,North,11,0.0,0.0,78,0.00,,,0.12,,2013-02-01 07:02:00,
2013-02-01 02:12:00,43.0,37.0,30.24,North,11,0.0,0.0,80,0.00,,,0.12,,2013-02-01 07:12:00,
2013-02-01 02:22:00,43.0,37.0,30.24,North,11,0.0,0.0,80,0.00,,,0.12,,2013-02-01 07:22:00,
2013-02-01 02:32:00,43.0,38.0,30.24,NNE,12,0.0,0.0,82,0.00,,,0.12,,2013-02-01 07:32:00,
2013-02-01 02:42:00,43.0,38.0,30.24,NNE,12,0.0,0.0,82,0.00,,,0.12,,2013-02-01 07:42:00,
2013-02-01 02:52:00,43.0,38.0,30.24,NNE,12,0.0,0.0,82,0.00,,,0.12,,2013-02-01 07:52:00,
2013-02-01 03:01:00,43.0,38.0,30.23,NNE,12,0.0,0.0,82,0.00,,,0.12,,2013-02-01 08:01:00,
2013-02-01 03:11:00,43.0,38.0,30.23,NNE,12,0.0,0.0,82,0.00,,,0.12,,2013-02-01 08:11:00,
2013-02-01 03:21:00,43.0,38.0,30.23,North,11,0.0,0.0,81,0.00,,,0.12,,2013-02-01 08:21:00,
2013-02-01 03:32:00,43.0,38.0,30.23,North,11,0.0,0.0,81,0.00,,,0.12,,2013-02-01 08:32:00,
2013-02-01 03:42:00,43.0,38.0,30.23,North,11,0.0,0.0,81,0.00,,,0.12,,2013-02-01 08:42:00,
2013-02-01 03:52:00,43.0,38.0,30.24,NNE,12,0.0,0.0,82,0.00,,,0.12,,2013-02-01 08:52:00,
2013-02-01 04:01:00,42.0,37.0,30.24,NNE,12,0.0,0.0,82,0.00,,,0.12,,2013-02-01 09:01:00,
2013-02-01 04:11:00,42.0,37.0,30.24,NNE,12,0.0,0.0,82,0.00,,,0.12,,2013-02-01 09:11:00,
2013-02-01 04:21:00,41.0,36.0,30.25,NNE,12,0.0,0.0,83,0.00,,,0.12,,2013-02-01 09:21:00,
2013-02-01 04:32:00,40.0,36.0,30.24,NNE,12,0.0,0.0,84,0.00,,,0.12,,2013-02-01 09:32:00,
2013-02-01 04:42:00,40.0,36.0,30.24,NNE,12,0.0,0.0,84,0.00,,,0.12,,2013-02-01 09:42:00,
2013-02-01 04:52:00,41.0,37.0,30.25,NNE,12,0.0,0.0,84,0.00,,,0.12,,2013-02-01 09:52:00,
2013-02-01 05:01:00,42.0,38.0,30.25,North,11,0.0,0.0,84,0.00,,,0.12,,2013-02-01 10:01:00,
2013-02-01 05:11:00,42.0,38.0,30.25,North,11,0.0,0.0,84,0.00,,,0.12,,2013-02-01 10:11:00,
2013-02-01 05:21:00,42.0,38.0,30.24,NNE,12,0.0,0.0,84,0.00,,,0.11,,2013-02-01 10:21:00,
2013-02-01 05:32:00,42.0,38.0,30.25,NNE,12,0.0,0.0,84,0.00,,,0.11,,2013-02-01 10:32:00,
2013-02-01 05:42:00,42.0,38.0,30.25,NNE,12,0.0,0.0,84,0.00,,,0.11,,2013-02-01 10:42:00,
2013-02-01 05:53:00,41.0,37.0,30.26,NNE,12,0.0,0.0,84,0.00,,,0.11,,2013-02-01 10:53:00,
2013-02-01 06:02:00,41.0,37.0,30.26,NNE,12,0.0,0.0,84,0.00,,,0.11,,2013-02-01 11:02:00,
2013-02-01 06:11:00,41.0,37.0,30.26,NNE,12,0.0,0.0,84,0.00,,,0.11,,2013-02-01 11:11:00,
2013-02-01 06:22:00,41.0,37.0,30.27,North,11,0.0,3.0,84,0.00,,,0.08,,2013-02-01 11:22:00,
2013-02-01 06:32:00,42.0,37.0,30.27,NNE,12,0.0,3.0,83,0.00,,,0.08,,2013-02-01 11:32:00,
2013-02-01 06:42:00,42.0,37.0,30.27,NNE,12,0.0,3.0,83,0.00,,,0.08,,2013-02-01 11:42:00,
2013-02-01 06:53:00,42.0,37.0,30.28,North,11,0.0,2.0,82,0.00,,,0.08,,2013-02-01 11:53:00,
2013-02-01 07:03:00,42.0,37.0,30.29,NNE,12,0.0,4.0,81,0.00,,,0.08,,2013-02-01 12:03:00,
2013-02-01 07:12:00,42.0,37.0,30.29,NNE,12,0.0,4.0,81,0.00,,,0.08,,2013-02-01 12:12:00,
2013-02-01 07:23:00,42.0,37.0,30.29,NNE,12,0.0,3.0,81,0.00,,,0.03,,2013-02-01 12:23:00,
2013-02-01 07:32:00,42.0,37.0,30.29,NNE,12,0.0,3.0,81,0.00,,,0.03,,2013-02-01 12:32:00,
2013-02-01 07:42:00,42.0,37.0,30.29,NNE,12,0.0,3.0,81,0.00,,,0.03,,2013-02-01 12:42:00,
2013-02-01 07:52:00,42.0,37.0,30.30,North,11,1.0,5.0,81,0.00,,,0.03,,2013-02-01 12:52:00,
2013-02-01 08:02:00,43.0,37.0,30.30,NNE,12,0.0,5.0,80,0.00,,,0.03,,2013-02-01 13:02:00,
2013-02-01 08:11:00,43.0,37.0,30.30,NNE,12,0.0,5.0,80,0.00,,,0.03,,2013-02-01 13:11:00,
2013-02-01 08:22:00,44.0,38.0,30.31,NNE,12,1.0,7.0,79,0.00,,,0.03,,2013-02-01 13:22:00,
2013-02-01 08:33:00,46.0,39.0,30.31,North,11,3.0,7.0,76,0.00,,,0.03,,2013-02-01 13:33:00,
2013-02-01 08:42:00,46.0,39.0,30.31,North,11,3.0,7.0,76,0.00,,,0.03,,2013-02-01 13:42:00,
2013-02-01 08:53:00,48.0,39.0,30.32,NNE,13,4.0,11.0,70,0.00,,,0.03,,2013-02-01 13:53:00,
2013-02-01 09:03:00,50.0,39.0,30.32,NNE,13,0.0,9.0,67,0.00,,,0.03,,2013-02-01 14:03:00,
2013-02-01 09:11:00,51.0,38.0,30.33,NNE,13,1.0,11.0,62,0.00,,,0.01,,2013-02-01 14:11:00,
2013-02-01 09:22:00,51.0,38.0,30.33,NNE,13,1.0,11.0,62,0.00,,,0.01,,2013-02-01 14:22:00,
2013-02-01 09:32:00,53.0,38.0,30.33,North,11,2.0,11.0,56,0.00,,,0.01,,2013-02-01 14:32:00,
2013-02-01 09:42:00,53.0,38.0,30.33,North,11,2.0,11.0,56,0.00,,,0.01,,2013-02-01 14:42:00,
2013-02-01 09:53:00,54.0,36.0,30.33,NNE,13,6.0,12.0,51,0.00,,,0.01,,2013-02-01 14:53:00,
2013-02-01 10:02:00,55.0,37.0,30.33,NNE,13,2.0,12.0,50,0.00,,,0.01,,2013-02-01 15:02:00,
2013-02-01 10:12:00,57.0,39.0,30.34,NNE,13,4.0,10.0,50,0.00,,,0.00,,2013-02-01 15:12:00,
2013-02-01 10:22:00,57.0,39.0,30.34,NNE,13,4.0,10.0,50,0.00,,,0.00,,2013-02-01 15:22:00,
2013-02-01 10:33:00,58.0,38.0,30.34,NNE,13,6.0,14.0,48,0.00,,,0.00,,2013-02-01 15:33:00,
2013-02-01 10:52:00,59.0,39.0,30.35,NNE,13,3.0,15.0,48,0.00,,,0.00,,2013-02-01 15:52:00,
2013-02-01 11:03:00,60.0,40.0,30.34,NNE,13,7.0,13.0,48,0.00,,,0.00,,2013-02-01 16:03:00,
2013-02-01 11:11:00,61.0,41.0,30.34,NNE,13,3.0,13.0,47,0.00,,,0.00,,2013-02-01 16:11:00,
2013-02-01 11:22:00,61.0,41.0,30.34,NNE,13,3.0,13.0,47,0.00,,,0.00,,2013-02-01 16:22:00,
2013-02-01 11:33:00,62.0,41.0,30.34,NNE,13,4.0,13.0,46,0.00,,,0.00,,2013-02-01 16:33:00,
2013-02-01 11:43:00,63.0,42.0,30.34,North,11,2.0,10.0,46,0.00,,,0.00,,2013-02-01 16:43:00,
2013-02-01 11:52:00,63.0,42.0,30.34,North,11,2.0,10.0,46,0.00,,,0.00,,2013-02-01 16:52:00,
2013-02-01 12:02:00,63.0,41.0,30.34,NNE,15,6.0,15.0,45,0.00,,,0.00,,2013-02-01 17:02:00,
2013-02-01 12:12:00,64.0,42.0,30.33,NNE,14,7.0,12.0,44,0.00,,,0.00,,2013-02-01 17:12:00,
2013-02-01 12:22:00,64.0,42.0,30.33,NNE,14,7.0,12.0,44,0.00,,,0.00,,2013-02-01 17:22:00,
2013-02-01 12:32:00,64.0,41.0,30.32,NNE,13,6.0,11.0,43,0.00,,,0.00,,2013-02-01 17:32:00,
2013-02-01 12:42:00,64.0,41.0,30.32,NNE,13,6.0,11.0,43,0.00,,,0.00,,2013-02-01 17:42:00,
2013-02-01 12:53:00,66.0,41.0,30.32,NNE,15,4.0,11.0,40,0.00,,,0.00,,2013-02-01 17:53:00,
2013-02-01 13:03:00,66.0,40.0,30.31,NNE,15,7.0,16.0,38,0.00,,,0.00,,2013-02-01 18:03:00,
2013-02-01 13:12:00,66.0,40.0,30.31,NNE,15,7.0,16.0,38,0.00,,,0.00,,2013-02-01 18:12:00,
2013-02-01 13:22:00,66.0,40.0,30.30,NNE,15,6.0,14.0,38,0.00,,,0.00,,2013-02-01 18:22:00,
2013-02-01 13:32:00,67.0,40.0,30.29,NNE,15,5.0,11.0,37,0.00,,,0.00,,2013-02-01 18:32:00,
2013-02-01 13:42:00,67.0,40.0,30.29,NNE,15,5.0,11.0,37,0.00,,,0.00,,2013-02-01 18:42:00,
2013-02-01 13:53:00,67.0,37.0,30.28,NNE,17,5.0,13.0,33,0.00,,,0.00,,2013-02-01 18:53:00,
2013-02-01 14:03:00,68.0,39.0,30.27,NNE,17,6.0,12.0,34,0.00,,,0.00,,2013-02-01 19:03:00,
2013-02-01 14:12:00,68.0,39.0,30.27,NNE,17,6.0,12.0,34,0.00,,,0.00,,2013-02-01 19:12:00,
2013-02-01 14:21:00,68.0,39.0,30.27,NNE,15,6.0,12.0,34,0.00,,,0.00,,2013-02-01 19:21:00,
2013-02-01 14:32:00,68.0,38.0,30.27,NNE,16,5.0,12.0,33,0.00,,,0.00,,2013-02-01 19:32:00,
2013-02-01 14:42:00,68.0,38.0,30.27,NNE,16,5.0,12.0,33,0.00,,,0.00,,2013-02-01 19:42:00,
2013-02-01 14:52:00,70.0,39.0,30.26,NNE,15,6.0,11.0,32,0.00,,,0.00,,2013-02-01 19:52:00,
2013-02-01 15:02:00,69.0,39.0,30.25,North,360,3.0,11.0,33,0.00,,,0.00,,2013-02-01 20:02:00,
2013-02-01 15:11:00,69.0,39.0,30.26,NNE,15,6.0,17.0,33,0.00,,,0.00,,2013-02-01 20:11:00,
2013-02-01 15:21:00,69.0,39.0,30.26,NNE,15,6.0,17.0,33,0.00,,,0.00,,2013-02-01 20:21:00,
2013-02-01 15:32:00,69.0,39.0,30.25,NNE,15,3.0,13.0,33,0.00,,,0.00,,2013-02-01 20:32:00,
2013-02-01 15:42:00,69.0,38.0,30.25,NNE,15,3.0,14.0,32,0.00,,,0.00,,2013-02-01 20:42:00,
2013-02-01 15:52:00,69.0,38.0,30.25,NNE,15,3.0,14.0,32,0.00,,,0.00,,2013-02-01 20:52:00,
2013-02-01 16:02:00,69.0,38.0,30.25,NNE,16,6.0,11.0,32,0.00,,,0.00,,2013-02-01 21:02:00,
2013-02-01 16:12:00,69.0,38.0,30.25,NNE,16,6.0,11.0,32,0.00,,,0.00,,2013-02-01 21:12:00,
2013-02-01 16:22:00,69.0,35.0,30.25,NNE,15,5.0,14.0,29,0.00,,,0.00,,2013-02-01 21:22:00,
2013-02-01 16:32:00,69.0,35.0,30.25,NNE,15,5.0,13.0,29,0.00,,,0.00,,2013-02-01 21:32:00,
2013-02-01 16:42:00,69.0,35.0,30.25,NNE,15,5.0,13.0,29,0.00,,,0.00,,2013-02-01 21:42:00,
2013-02-01 16:52:00,69.0,34.0,30.25,NNE,16,5.0,12.0,27,0.00,,,0.00,,2013-02-01 21:52:00,
2013-02-01 17:02:00,69.0,33.0,30.25,NNE,15,4.0,8.0,26,0.00,,,0.00,,2013-02-01 22:02:00,
2013-02-01 17:11:00,69.0,33.0,30.25,NNE,15,4.0,8.0,26,0.00,,,0.00,,2013-02-01 22:11:00,
2013-02-01 17:21:00,69.0,34.0,30.26,NNE,15,0.0,8.0,27,0.00,,,0.00,,2013-02-01 22:21:00,
2013-02-01 17:32:00,68.0,32.0,30.26,NNE,15,2.0,11.0,26,0.00,,,0.00,,2013-02-01 22:32:00,
2013-02-01 17:42:00,68.0,32.0,30.26,NNE,15,2.0,11.0,26,0.00,,,0.00,,2013-02-01 22:42:00,
2013-02-01 17:52:00,68.0,34.0,30.26,NNE,15,0.0,7.0,28,0.00,,,0.00,,2013-02-01 22:52:00,
2013-02-01 18:01:00,66.0,33.0,30.26,NNE,15,0.0,1.0,29,0.00,,,0.00,,2013-02-01 23:01:00,
2013-02-01 18:11:00,66.0,33.0,30.26,NNE,15,0.0,1.0,29,0.00,,,0.00,,2013-02-01 23:11:00,
2013-02-01 18:22:00,65.0,34.0,30.26,NNE,15,0.0,0.0,31,0.00,,,0.00,,2013-02-01 23:22:00,
2013-02-01 18:32:00,63.0,33.0,30.26,NNE,15,0.0,0.0,32,0.00,,,0.00,,2013-02-01 23:32:00,
2013-02-01 18:42:00,63.0,33.0,30.26,NNE,15,0.0,0.0,32,0.00,,,0.00,,2013-02-01 23:42:00,
2013-02-01 18:52:00,62.0,33.0,30.27,NNE,14,0.0,0.0,33,0.00,,,0.00,,2013-02-01 23:52:00,
2013-02-01 19:02:00,60.0,32.0,30.27,NNE,15,0.0,0.0,35,0.00,,,0.00,,2013-02-02 00:02:00,
2013-02-01 19:11:00,60.0,32.0,30.27,NNE,15,0.0,0.0,35,0.00,,,0.00,,2013-02-02 00:11:00,
2013-02-01 19:21:00,59.0,34.0,30.27,NNE,14,0.0,0.0,39,0.00,,,0.00,,2013-02-02 00:21:00,
2013-02-01 19:32:00,57.0,35.0,30.27,NNE,15,0.0,0.0,44,0.00,,,0.00,,2013-02-02 00:32:00,
2013-02-01 19:42:00,57.0,35.0,30.27,NNE,15,0.0,0.0,44,0.00,,,0.00,,2013-02-02 00:42:00,
2013-02-01 19:52:00,55.0,35.0,30.27,NNE,15,0.0,0.0,47,0.00,,,0.00,,2013-02-02 00:52:00,
2013-02-01 20:02:00,55.0,34.0,30.27,NNE,14,0.0,0.0,45,0.00,,,0.00,,2013-02-02 01:02:00,
2013-02-01 20:11:00,55.0,34.0,30.27,NNE,14,0.0,0.0,45,0.00,,,0.00,,2013-02-02 01:11:00,
2013-02-01 20:21:00,55.0,33.0,30.27,NNE,15,0.0,0.0,44,0.00,,,0.00,,2013-02-02 01:21:00,
2013-02-01 20:32:00,55.0,36.0,30.27,NNE,15,0.0,0.0,48,0.00,,,0.00,,2013-02-02 01:32:00,
2013-02-01 20:42:00,55.0,36.0,30.27,NNE,15,0.0,0.0,48,0.00,,,0.00,,2013-02-02 01:42:00,
2013-02-01 20:52:00,54.0,35.0,30.28,NNE,15,0.0,0.0,48,0.00,,,0.00,,2013-02-02 01:52:00,
2013-02-01 21:01:00,53.0,36.0,30.28,NNE,14,0.0,0.0,52,0.00,,,0.00,,2013-02-02 02:01:00,
2013-02-01 21:11:00,53.0,36.0,30.28,NNE,14,0.0,0.0,52,0.00,,,0.00,,2013-02-02 02:11:00,
2013-02-01 21:22:00,52.0,34.0,30.28,NNE,14,0.0,0.0,50,0.00,,,0.00,,2013-02-02 02:22:00,
2013-02-01 21:32:00,51.0,34.0,30.28,NNE,14,0.0,0.0,53,0.00,,,0.00,,2013-02-02 02:32:00,
2013-02-01 21:42:00,51.0,34.0,30.28,NNE,14,0.0,0.0,53,0.00,,,0.00,,2013-02-02 02:42:00,
2013-02-01 21:52:00,50.0,34.0,30.28,NNE,15,0.0,0.0,55,0.00,,,0.00,,2013-02-02 02:52:00,
2013-02-01 22:02:00,50.0,36.0,30.28,NNE,15,0.0,0.0,59,0.00,,,0.00,,2013-02-02 03:02:00,
2013-02-01 22:11:00,49.0,36.0,30.28,NNE,15,0.0,0.0,60,0.00,,,0.00,,2013-02-02 03:11:00,
2013-02-01 22:22:00,49.0,36.0,30.28,NNE,15,0.0,0.0,60,0.00,,,0.00,,2013-02-02 03:22:00,
2013-02-01 22:32:00,48.0,35.0,30.29,NNE,15,0.0,0.0,60,0.00,,,0.00,,2013-02-02 03:32:00,
2013-02-01 22:42:00,47.0,35.0,30.29,NNE,14,0.0,0.0,63,0.00,,,0.00,,2013-02-02 03:42:00,
2013-02-01 22:52:00,47.0,35.0,30.29,NNE,14,0.0,0.0,63,0.00,,,0.00,,2013-02-02 03:52:00,
2013-02-01 23:02:00,47.0,35.0,30.29,NNE,15,0.0,0.0,64,0.00,,,0.00,,2013-02-02 04:02:00,
2013-02-01 23:22:00,47.0,35.0,30.29,NNE,15,0.0,0.0,64,0.00,,,0.00,,2013-02-02 04:22:00,
2013-02-01 23:32:00,47.0,37.0,30.29,NNE,15,0.0,0.0,67,0.00,,,0.00,,2013-02-02 04:32:00,
2013-02-01 23:42:00,47.0,37.0,30.29,NNE,15,0.0,0.0,67,0.00,,,0.00,,2013-02-02 04:42:00,
2013-02-01 23:52:00,46.0,36.0,30.29,NNE,15,0.0,0.0,69,0.00,,,0.00,,2013-02-02 04:52:00,